{"data":{"norad_id":68989,"epoch":"2026-09-20T01:29:14.286624Z","epoch_age_seconds":57124,"freshness":"FRESH","line1":"1 68989U 26100K   26263.06197091  .00001269  00000+0  13344-3 0  9996","line2":"2 68989  97.7258 158.5587 0006054 166.7090 193.4289 14.91152070 20832","mean_motion":14.9115207,"eccentricity":0.0006054,"inclination_deg":97.7258,"raan_deg":158.5587,"arg_perigee_deg":166.709,"mean_anomaly_deg":193.4289,"bstar":0.00013344,"rev_number":2083,"period_min":96.569627536379,"perigee_km":590.12090268696,"apogee_km":598.56318031041,"semimajor_km":6972.4790414987,"source":"CELESTRAK","updated_at":"2026-09-20T09:00:24.600294Z"}}